Time,TemperatureF,DewpointF,PressureIn,WindDirection,WindDirectionDegrees,WindSpeedMPH,WindSpeedGustMPH,Humidity,HourlyPrecipIn,Conditions,Clouds,dailyrainin,SoftwareType,DateUTC
2013-01-27 00:00:00,25.0,15.2,29.71,SSE,158,6.0,11.0,66,0.00,,,-99.99,Weather View 32 v60,2013-01-27 06:00:00,
2013-01-27 00:30:00,26.0,16.2,29.71,SSW,202,5.0,11.0,66,0.00,,,-99.99,Weather View 32 v60,2013-01-27 06:30:00,
2013-01-27 01:00:00,26.0,15.8,29.71,SSE,158,5.0,10.0,65,0.00,,,-99.99,Weather View 32 v60,2013-01-27 07:00:00,
2013-01-27 01:30:00,26.0,15.8,29.70,South,180,7.0,10.0,65,0.00,,,-99.99,Weather View 32 v60,2013-01-27 07:30:00,
2013-01-27 02:00:00,26.0,15.8,29.69,South,180,6.0,10.0,65,0.00,,,-99.99,Weather View 32 v60,2013-01-27 08:00:00,
2013-01-27 02:30:00,26.0,15.5,29.68,South,180,3.0,11.0,64,0.00,,,-99.99,Weather View 32 v60,2013-01-27 08:30:00,
2013-01-27 03:00:00,27.0,16.1,29.66,SSW,202,5.0,11.0,63,0.00,,,-99.99,Weather View 32 v60,2013-01-27 09:00:00,
2013-01-27 03:30:00,27.0,16.1,29.66,SSE,158,3.0,12.0,63,0.00,,,-99.99,Weather View 32 v60,2013-01-27 09:30:00,
2013-01-27 04:00:00,26.0,15.1,29.64,South,180,5.0,12.0,63,0.00,,,-99.99,Weather View 32 v60,2013-01-27 10:00:00,
2013-01-27 04:30:00,26.0,15.5,29.64,South,180,3.0,13.0,64,0.00,,,-99.99,Weather View 32 v60,2013-01-27 10:30:00,
2013-01-27 05:00:00,26.0,15.5,29.63,South,180,5.0,13.0,64,0.00,,,-99.99,Weather View 32 v60,2013-01-27 11:00:00,
2013-01-27 05:30:00,27.0,16.8,29.63,SSE,158,3.0,13.0,65,0.00,,,-99.99,Weather View 32 v60,2013-01-27 11:30:00,
2013-01-27 06:00:00,27.0,17.2,29.64,SSW,202,4.0,10.0,66,0.00,,,-99.99,Weather View 32 v60,2013-01-27 12:00:00,
2013-01-27 06:30:00,27.0,17.5,29.64,South,180,6.0,10.0,67,0.00,,,-99.99,Weather View 32 v60,2013-01-27 12:30:00,
2013-01-27 07:00:00,27.0,17.8,29.64,SE,135,5.0,10.0,68,0.00,,,-99.99,Weather View 32 v60,2013-01-27 13:00:00,
2013-01-27 07:30:00,28.0,19.1,29.65,SSW,202,3.0,10.0,69,0.00,,,-99.99,Weather View 32 v60,2013-01-27 13:30:00,
2013-01-27 08:00:00,28.0,19.5,29.64,South,180,6.0,11.0,70,0.00,,,-99.99,Weather View 32 v60,2013-01-27 14:00:00,
2013-01-27 08:30:00,29.0,20.4,29.64,South,180,5.0,11.0,70,0.00,,,-99.99,Weather View 32 v60,2013-01-27 14:30:00,
2013-01-27 09:00:00,30.0,21.4,29.63,South,180,5.0,12.0,70,0.00,,,-99.99,Weather View 32 v60,2013-01-27 15:00:00,
2013-01-27 09:30:00,30.0,20.7,29.61,South,180,6.0,13.0,68,0.00,,,-99.99,Weather View 32 v60,2013-01-27 15:30:00,
2013-01-27 10:00:00,31.0,21.3,29.60,SE,135,5.0,14.0,67,0.00,,,-99.99,Weather View 32 v60,2013-01-27 16:00:00,
2013-01-27 10:30:00,32.0,22.6,29.59,South,180,6.0,14.0,68,0.00,,,-99.99,Weather View 32 v60,2013-01-27 16:30:00,
2013-01-27 11:00:00,32.0,23.7,29.57,NE,45,3.0,13.0,71,0.00,,,-99.99,Weather View 32 v60,2013-01-27 17:00:00,
2013-01-27 11:30:00,30.0,26.0,29.55,SSW,202,2.0,13.0,85,0.00,,,-99.99,Weather View 32 v60,2013-01-27 17:30:00,
2013-01-27 12:00:00,31.0,27.6,29.53,South,180,5.0,12.0,87,0.00,,,-99.99,Weather View 32 v60,2013-01-27 18:00:00,
2013-01-27 12:30:00,30.0,27.4,29.53,SSW,202,4.0,11.0,90,0.00,,,-99.99,Weather View 32 v60,2013-01-27 18:30:00,
2013-01-27 13:00:00,30.0,28.0,29.51,SSE,158,2.0,11.0,92,0.00,,,-99.99,Weather View 32 v60,2013-01-27 19:00:00,
2013-01-27 13:30:00,30.0,28.2,29.50,ESE,112,5.0,11.0,93,0.03,,,-99.99,Weather View 32 v60,2013-01-27 19:30:00,
2013-01-27 14:00:00,30.0,28.5,29.48,East,90,3.0,11.0,94,0.08,,,-99.99,Weather View 32 v60,2013-01-27 20:00:00,
2013-01-27 14:30:00,31.0,29.5,29.45,East,90,3.0,13.0,94,0.07,,,-99.99,Weather View 32 v60,2013-01-27 20:30:00,
2013-01-27 15:00:00,31.0,29.7,29.43,ENE,68,5.0,13.0,95,0.02,,,-99.99,Weather View 32 v60,2013-01-27 21:00:00,
2013-01-27 15:30:00,32.0,30.7,29.41,ESE,112,5.0,13.0,95,0.00,,,-99.99,Weather View 32 v60,2013-01-27 21:30:00,
2013-01-27 16:00:00,32.0,30.7,29.39,East,90,7.0,14.0,95,0.00,,,-99.99,Weather View 32 v60,2013-01-27 22:00:00,
2013-01-27 16:30:00,32.0,30.7,29.40,SE,135,4.0,14.0,95,0.03,,,-99.99,Weather View 32 v60,2013-01-27 22:30:00,
2013-01-27 17:00:00,32.0,30.7,29.39,East,90,5.0,15.0,95,0.04,,,-99.99,Weather View 32 v60,2013-01-27 23:00:00,
2013-01-27 17:30:00,32.0,31.0,29.38,East,90,5.0,15.0,96,0.01,,,-99.99,Weather View 32 v60,2013-01-27 23:30:00,
2013-01-27 18:00:00,33.0,32.0,29.38,ESE,112,3.0,11.0,96,0.00,,,-99.99,Weather View 32 v60,2013-01-28 00:00:00,
2013-01-27 18:30:00,33.0,32.0,29.37,SE,135,3.0,10.0,96,0.00,,,-99.99,Weather View 32 v60,2013-01-28 00:30:00,
2013-01-27 19:00:00,33.0,32.0,29.34,SE,135,3.0,11.0,96,0.00,,,-99.99,Weather View 32 v60,2013-01-28 01:00:00,
2013-01-27 19:30:00,33.0,32.0,29.33,SSW,202,5.0,11.0,96,0.00,,,-99.99,Weather View 32 v60,2013-01-28 01:30:00,
2013-01-27 20:00:00,33.0,32.0,29.33,East,90,2.0,10.0,96,0.00,,,-99.99,Weather View 32 v60,2013-01-28 02:00:00,
2013-01-27 20:30:00,33.0,32.0,29.31,SE,135,1.0,10.0,96,0.00,,,-99.99,Weather View 32 v60,2013-01-28 02:30:00,
2013-01-27 21:00:00,33.0,32.0,29.30,SE,135,1.0,10.0,96,0.00,,,-99.99,Weather View 32 v60,2013-01-28 03:00:00,
2013-01-27 21:30:00,33.0,32.0,29.29,East,90,1.0,10.0,96,0.00,,,-99.99,Weather View 32 v60,2013-01-28 03:30:00,
2013-01-27 22:00:00,33.0,32.2,29.28,SSE,158,3.0,6.0,97,0.00,,,-99.99,Weather View 32 v60,2013-01-28 04:00:00,
2013-01-27 22:30:00,34.0,33.2,29.27,SE,135,0.0,5.0,97,0.00,,,-99.99,Weather View 32 v60,2013-01-28 04:30:00,
2013-01-27 23:00:00,34.0,33.2,29.26,ESE,112,1.0,5.0,97,0.00,,,-99.99,Weather View 32 v60,2013-01-28 05:00:00,
2013-01-27 23:30:00,34.0,33.2,29.25,SSE,158,1.0,5.0,97,0.00,,,-99.99,Weather View 32 v60,2013-01-28 05:30:00,